Cheraw, SC

8:27 AM EDT on May 27, 2018 (GMT -0400)
Cheraw

Weather History for KCQW - July, 2013

Change the Weather History Date:

Wednesday, July 31, 2013

  Actual Average (KFLO) Record (KFLO)
Temperature  
Mean Temperature 76 °F -  
Max Temperature 84 °F 89 °F 103 °F (1999)
Min Temperature 69 °F 70 °F 61 °F (2017)
Cooling Degree Days 12    
Growing Degree Days 26 (Base 50)    
Moisture  
Dew Point 72 °F    
Average Humidity 89    
Maximum Humidity 100    
Minimum Humidity 66    
Precipitation  
Precipitation 0.09 in - - ()
Sea Level Pressure  
Sea Level Pressure 30.09 in    
Wind  
Wind Speed - (North)    
Max Wind Speed -    
Max Gust Speed -    
Averages and records for this station are not official NWS values.
T = Trace of Precipitation, MM = Missing Value Source: NWS Daily Summary

Daily Weather History Graph

Daily Weather History Graph

Search for Another Location

Airport or City:

Astronomy

Jul. 31, 2013 Rise Set
Actual Time 6:29 AM EDT 8:22 PM EDT
Civil Twilight 6:01 AM EDT 8:50 PM EDT
Nautical Twilight 5:27 AM EDT 9:23 PM EDT
Astronomical Twilight 4:52 AM EDT 9:59 PM EDT
Moon 1:23 AM EDT (7/31) 3:36 PM EDT (7/31)
Length of Visible Light 14h 48m
Length of Day
13h 53m
Waning Crescent, 32% of the Moon is Illuminated
Jul 31
Waning Crescent
Aug 6
New
Aug 14
First Quarter
Aug 20
Full
Aug 28
Last Quarter

Hourly Weather History & Observations

Time (EDT) Temp. Heat Index Dew Point Humidity Pressure Visibility Wind Dir Wind Speed Gust Speed Precip Events Conditions
12:15 AM 71.6 °F - 69.8 °F 94% 30.15 in - North - - N/A Rain Light Rain
12:35 AM 71.6 °F - 69.8 °F 94% 30.15 in - North - - N/A Rain Light Rain
12:55 AM 71.6 °F - 69.8 °F 94% 30.15 in - North - - N/A Rain Light Rain
1:15 AM 71.6 °F - 71.6 °F 100% 30.15 in - North - - N/A Rain Light Rain
1:35 AM 71.6 °F - 69.8 °F 94% 30.14 in - North - - N/A Rain Light Rain
1:55 AM 69.8 °F - 69.8 °F 100% 30.14 in - North - - N/A Rain Light Rain
2:15 AM 69.8 °F - 69.8 °F 100% 30.13 in - North - - N/A Rain Light Rain
2:35 AM 69.8 °F - 69.8 °F 100% 30.13 in - North - - N/A Rain Light Rain
3:15 AM 69.8 °F - 69.8 °F 100% 30.13 in - North - - N/A Rain Light Rain
3:35 AM 69.8 °F - 69.8 °F 100% 30.12 in - North - - N/A Rain Light Rain
3:55 AM 69.8 °F - 69.8 °F 100% 30.12 in - North - - N/A Rain Light Rain
4:15 AM 69.8 °F - 69.8 °F 100% 30.12 in - North - - N/A Rain Light Rain
4:35 AM 69.8 °F - 69.8 °F 100% 30.12 in - North - - N/A Rain Light Rain
4:55 AM 69.8 °F - 69.8 °F 100% 30.11 in - North - - N/A Rain Light Rain
5:15 AM 69.8 °F - 69.8 °F 100% 30.12 in - North - - N/A Rain Light Rain
5:35 AM 71.6 °F - 69.8 °F 94% 30.12 in - North - - N/A Rain Light Rain
5:55 AM 69.8 °F - 69.8 °F 100% 30.13 in - North - - N/A Rain Light Rain
6:15 AM 69.8 °F - 69.8 °F 100% 30.12 in - North - - N/A Rain Light Rain
6:35 AM 69.8 °F - 69.8 °F 100% 30.12 in - North - - N/A Rain Light Rain
6:55 AM 69.8 °F - 69.8 °F 100% 30.12 in - North - - N/A Rain Light Rain
7:15 AM 69.8 °F - 69.8 °F 100% 30.12 in - North - - N/A Rain Light Rain
7:35 AM 69.8 °F - 69.8 °F 100% 30.13 in - North - - N/A Rain Light Rain
7:55 AM 69.8 °F - 69.8 °F 100% 30.14 in - North - - N/A Rain Light Rain
8:15 AM 71.6 °F - 71.6 °F 100% 30.14 in - North - - N/A Rain Light Rain
8:35 AM 71.6 °F - 71.6 °F 100% 30.15 in - North - - N/A Rain Light Rain
8:55 AM 71.6 °F - 71.6 °F 100% 30.16 in - North - - N/A Rain Light Rain
9:15 AM 71.6 °F - 71.6 °F 100% 30.16 in - North - - N/A Rain Light Rain
9:35 AM 73.4 °F - 71.6 °F 94% 30.15 in - North - - N/A Rain Light Rain
9:55 AM 77.0 °F - 71.6 °F 83% 30.15 in - North - - N/A Rain Light Rain
10:15 AM 78.8 °F - 73.4 °F 83% 30.14 in - North - - N/A Rain Light Rain
10:35 AM 78.8 °F - 73.4 °F 83% 30.14 in - North - - N/A Rain Light Rain
10:55 AM 78.8 °F - 73.4 °F 83% 30.14 in - North - - N/A Rain Light Rain
11:15 AM 80.6 °F 84.6 °F 71.6 °F 74% 30.14 in - North - - N/A Rain Light Rain
11:35 AM 80.6 °F 84.6 °F 71.6 °F 74% 30.13 in - North - - N/A Rain Light Rain
11:55 AM 80.6 °F 84.6 °F 71.6 °F 74% 30.13 in - North - - N/A Rain Light Rain
12:15 PM 82.4 °F 88.2 °F 73.4 °F 74% 30.12 in - North - - N/A Rain Light Rain
12:35 PM 82.4 °F 87.2 °F 71.6 °F 70% 30.12 in - North - - N/A Rain Light Rain
12:55 PM 84.2 °F 89.6 °F 71.6 °F 66% 30.12 in - North - - N/A Rain Light Rain
1:15 PM 84.2 °F 90.9 °F 73.4 °F 70% 30.11 in - North - - N/A Rain Light Rain
1:35 PM 82.4 °F 87.2 °F 71.6 °F 70% 30.11 in - North - - N/A Rain Light Rain
1:55 PM 82.4 °F 88.2 °F 73.4 °F 74% 30.10 in - North - - N/A Rain Light Rain
2:15 PM 82.4 °F 88.2 °F 73.4 °F 74% 30.09 in - North - - N/A Rain Light Rain
2:35 PM 82.4 °F 88.2 °F 73.4 °F 74% 30.08 in - North - - N/A Rain Light Rain
2:55 PM 82.4 °F 88.2 °F 73.4 °F 74% 30.08 in - North - - N/A Rain Light Rain
3:15 PM 82.4 °F 88.2 °F 73.4 °F 74% 30.06 in - North - - N/A Rain Light Rain
3:35 PM 82.4 °F 87.2 °F 71.6 °F 70% 30.05 in - North - - N/A Rain Light Rain
3:55 PM 84.2 °F 89.6 °F 71.6 °F 66% 30.05 in - North - - N/A Rain Light Rain
4:15 PM 82.4 °F 87.2 °F 71.6 °F 70% 30.04 in - North - - N/A Rain Light Rain
4:35 PM 82.4 °F 88.2 °F 73.4 °F 74% 30.03 in - North - - N/A Rain Light Rain
4:55 PM 82.4 °F 88.2 °F 73.4 °F 74% 30.02 in - North - - N/A Rain Light Rain
5:15 PM 82.4 °F 88.2 °F 73.4 °F 74% 30.02 in - North - - N/A Rain Light Rain
5:35 PM 80.6 °F 85.4 °F 73.4 °F 79% 30.02 in - North - - N/A Rain Light Rain
5:55 PM 80.6 °F 84.6 °F 71.6 °F 74% 30.02 in - North - - N/A Rain Light Rain
6:15 PM 80.6 °F 84.6 °F 71.6 °F 74% 30.01 in - North - - N/A Rain Light Rain
6:35 PM 78.8 °F - 73.4 °F 83% 30.01 in - North - - N/A Rain Light Rain
6:55 PM 78.8 °F - 73.4 °F 83% 30.01 in - North - - N/A Rain Light Rain
7:15 PM 77.0 °F - 73.4 °F 89% 30.01 in - North - - N/A Rain Light Rain
7:35 PM 77.0 °F - 73.4 °F 89% 30.02 in - North - - N/A Rain Light Rain
7:55 PM 77.0 °F - 73.4 °F 89% 30.03 in - North - - N/A Rain Light Rain
8:15 PM 75.2 °F - 73.4 °F 94% 30.03 in - North - - N/A Rain Light Rain
8:35 PM 73.4 °F - 71.6 °F 94% 30.03 in - North - - N/A Rain Light Rain
8:55 PM 73.4 °F - 71.6 °F 94% 30.04 in - North - - N/A Rain , Thunderstorm Light Rain
9:15 PM 71.6 °F - 71.6 °F 100% 30.04 in - North - - 0.01 in Rain , Thunderstorm Light Rain
9:35 PM 71.6 °F - 71.6 °F 100% 30.05 in - North - - 0.07 in Rain Light Rain
9:55 PM 71.6 °F - 71.6 °F 100% 30.06 in - North - - 0.09 in Rain Light Rain
10:15 PM 71.6 °F - 71.6 °F 100% 30.06 in - North - - N/A Rain Light Rain
10:35 PM 71.6 °F - 71.6 °F 100% 30.05 in - North - - N/A Rain Light Rain
10:55 PM 71.6 °F - 71.6 °F 100% 30.04 in - North - - N/A Rain Light Rain
11:15 PM 71.6 °F - 71.6 °F 100% 30.03 in - North - - N/A Rain Light Rain
11:35 PM 71.6 °F - 71.6 °F 100% 30.02 in - North - - N/A Rain Light Rain
11:55 PM 71.6 °F - 71.6 °F 100% 30.02 in - North - - N/A Rain Light Rain